Station Historical Data
Daily Summary for July 13, 2017 Units:  Metric    English   Both
« Previous Day
Next Day »
Daily Weekly Monthly Yearly Custom
  High: Low: Average:
Temperature: 26.8 °C 17.7 °C 22.7 °C
Dew Point: 22 °C 16.5 °C 20.2 °C
Humidity: 95% 72% 86%
Wind Speed: 16.1km/h 0km/h 4.2km/h
Wind Gust: 24.1km/h - -
Wind- - SSE
Pressure: 1015.5 hPa 1012.4 hPa -
Precipitation: 0 mm    
Historical Graphs
 
 
Tabular Data for July 13, 2017
Time Temperature Dew Point Pressure Wind Wind Speed Wind Gust Humidity Rainfall Rate (Hourly)
00:04 23.8 °C 21.8 °C 1012.4 hPa WSW 8 km/h 19.3 km/h 89% 1.02 mm
00:09 23.8 °C 21.7 °C 1012.8 hPa West 11.3 km/h 20.9 km/h 88% 0.51 mm
00:14 23.8 °C 21.7 °C 1012.8 hPa West 8 km/h 17.7 km/h 88% 0.25 mm
00:19 23.8 °C 21.7 °C 1012.8 hPa West 9.7 km/h 17.7 km/h 88% 0 mm
00:24 23.8 °C 21.6 °C 1012.4 hPa WSW 8 km/h 17.7 km/h 87% 0 mm
00:29 23.8 °C 21.6 °C 1012.4 hPa SW 8 km/h 14.5 km/h 87% 0 mm
00:34 23.8 °C 21.6 °C 1012.4 hPa WSW 6.4 km/h 22.5 km/h 87% 0 mm
00:39 23.9 °C 21.6 °C 1012.4 hPa West 14.5 km/h 16.1 km/h 87% 0 mm
00:44 23.8 °C 21.6 °C 1012.4 hPa WNW 11.3 km/h 14.5 km/h 87% 0 mm
00:49 23.8 °C 21.6 °C 1012.4 hPa West 8 km/h 24.1 km/h 87% 0 mm
00:54 23.8 °C 21.6 °C 1012.4 hPa West 8 km/h 24.1 km/h 87% 0 mm
00:59 23.9 °C 21.4 °C 1012.4 hPa West 8 km/h 19.3 km/h 86% 0 mm
01:04 24.1 °C 21.6 °C 1012.4 hPa West 8 km/h 19.3 km/h 86% 0 mm
01:09 24.2 °C 21.7 °C 1012.4 hPa WSW 8 km/h 20.9 km/h 86% 0 mm
01:14 24.3 °C 21.6 °C 1012.4 hPa West 8 km/h 20.9 km/h 85% 0 mm
01:19 24.3 °C 21.7 °C 1012.8 hPa West 8 km/h 20.9 km/h 85% 0 mm
01:24 24.3 °C 21.4 °C 1012.4 hPa WNW 3.2 km/h 14.5 km/h 84% 0 mm
01:29 24.3 °C 21.7 °C 1012.8 hPa West 12.9 km/h 14.5 km/h 85% 0 mm
01:34 24.3 °C 21.6 °C 1012.4 hPa West 6.4 km/h 16.1 km/h 85% 0 mm
01:39 24.3 °C 21.4 °C 1012.8 hPa West 8 km/h 19.3 km/h 84% 0 mm
01:44 24.3 °C 21.4 °C 1012.8 hPa West 3.2 km/h 12.9 km/h 84% 0 mm
01:49 24.4 °C 21.3 °C 1012.4 hPa West 6.4 km/h 14.5 km/h 83% 0 mm
01:54 24.4 °C 21.4 °C 1012.4 hPa West 6.4 km/h 16.1 km/h 83% 0 mm
01:59 24.4 °C 21.3 °C 1012.8 hPa West 8 km/h 16.1 km/h 83% 0 mm
02:04 24.4 °C 21.1 °C 1012.8 hPa West 4.8 km/h 12.9 km/h 82% 0 mm
02:09 24.4 °C 21.4 °C 1012.8 hPa West 4.8 km/h 9.7 km/h 83% 0 mm
02:14 24.4 °C 21.3 °C 1013.1 hPa WNW 3.2 km/h 9.7 km/h 83% 0 mm
02:19 24.3 °C 21.3 °C 1013.1 hPa West 4.8 km/h 9.7 km/h 83% 0 mm
02:24 24.3 °C 21.2 °C 1013.1 hPa West 4.8 km/h 12.9 km/h 83% 0 mm
02:29 24.2 °C 21.3 °C 1013.1 hPa West 4.8 km/h 12.9 km/h 84% 0 mm
02:34 24.2 °C 21.3 °C 1013.1 hPa West 4.8 km/h 9.7 km/h 84% 0 mm
02:39 24.1 °C 21.2 °C 1013.1 hPa West 4.8 km/h 9.7 km/h 84% 0 mm
02:44 24.1 °C 21.2 °C 1013.1 hPa West 1.6 km/h 8 km/h 84% 0 mm
02:49 24.1 °C 21.2 °C 1013.1 hPa WSW 4.8 km/h 6.4 km/h 84% 0 mm
02:54 23.9 °C 21.1 °C 1013.1 hPa West 4.8 km/h 4.8 km/h 84% 0 mm
02:59 23.9 °C 21.3 °C 1012.8 hPa West 1.6 km/h 8 km/h 85% 0 mm
03:04 23.9 °C 21.2 °C 1013.1 hPa Calm   4.8 km/h 85% 0 mm
03:09 23.8 °C 21.2 °C 1013.1 hPa Calm   4.8 km/h 85% 0 mm
03:14 23.8 °C 21.3 °C 1013.1 hPa WSW 3.2 km/h 4.8 km/h 86% 0 mm
03:19 23.8 °C 21.3 °C 1013.1 hPa WSW 1.6 km/h 4.8 km/h 86% 0 mm
03:24 23.8 °C 21.3 °C 1013.1 hPa WSW 1.6 km/h 4.8 km/h 86% 0 mm
03:29 23.7 °C 21.2 °C 1013.1 hPa WSW 1.6 km/h 4.8 km/h 86% 0 mm
03:34 23.7 °C 21.2 °C 1013.1 hPa West 1.6 km/h 6.4 km/h 86% 0 mm
03:39 23.7 °C 21.2 °C 1013.1 hPa West 1.6 km/h 6.4 km/h 86% 0 mm
03:44 23.7 °C 21.2 °C 1013.1 hPa West 1.6 km/h 4.8 km/h 86% 0 mm
03:49 23.7 °C 21.2 °C 1013.1 hPa WSW 1.6 km/h 4.8 km/h 86% 0 mm
03:54 23.7 °C 21.2 °C 1013.1 hPa Calm   3.2 km/h 86% 0 mm
03:59 23.7 °C 21.2 °C 1013.1 hPa West 1.6 km/h 4.8 km/h 86% 0 mm
04:04 23.7 °C 21.2 °C 1013.1 hPa Calm   3.2 km/h 86% 0 mm
04:09 23.6 °C 21.1 °C 1013.1 hPa Calm   1.6 km/h 86% 0 mm
04:14 23.6 °C 21.1 °C 1013.1 hPa Calm     86% 0 mm
04:19 23.5 °C 21.2 °C 1013.1 hPa Calm     87% 0 mm
04:24 23.4 °C 21.2 °C 1013.1 hPa Calm     87% 0 mm
04:29 23.4 °C 21.1 °C 1013.1 hPa Calm   3.2 km/h 87% 0 mm
04:34 23.3 °C 21.2 °C 1013.1 hPa Calm   3.2 km/h 88% 0 mm
04:39 23.3 °C 21.2 °C 1013.1 hPa Calm     88% 0 mm
04:44 23.2 °C 21.1 °C 1013.1 hPa Calm     88% 0 mm
04:49 23.2 °C 21.1 °C 1013.1 hPa Calm     88% 0 mm
04:54 23.1 °C 20.9 °C 1013.1 hPa Calm     88% 0 mm
04:59 22.9 °C 21.1 °C 1013.1 hPa Calm     89% 0 mm
05:04 22.9 °C 21 °C 1013.1 hPa Calm     89% 0 mm
05:09 22.8 °C 20.9 °C 1013.1 hPa Calm     89% 0 mm
05:14 22.8 °C 20.9 °C 1013.1 hPa Calm     89% 0 mm
05:19 22.7 °C 20.8 °C 1013.1 hPa Calm     89% 0 mm
05:24 22.5 °C 20.8 °C 1013.1 hPa Calm     90% 0 mm
05:29 22.3 °C 20.6 °C 1013.1 hPa Calm     90% 0 mm
05:34 22.3 °C 20.6 °C 1013.1 hPa Calm     90% 0 mm
05:39 22.2 °C 20.4 °C 1013.1 hPa Calm     90% 0 mm
05:44 22.1 °C 20.5 °C 1013.1 hPa Calm     91% 0 mm
05:49 22.1 °C 20.5 °C 1013.1 hPa Calm     91% 0 mm
05:54 22.1 °C 20.5 °C 1013.1 hPa Calm     91% 0 mm
05:59 22.1 °C 20.5 °C 1013.1 hPa Calm     91% 0 mm
06:04 22.2 °C 20.8 °C 1013.1 hPa Calm     92% 0 mm
06:09 22.3 °C 20.9 °C 1013.1 hPa Calm     92% 0 mm
06:14 22.3 °C 20.9 °C 1013.1 hPa Calm     92% 0 mm
06:19 22.4 °C 21 °C 1013.4 hPa Calm     92% 0 mm
06:24 22.4 °C 21.1 °C 1013.4 hPa Calm     92% 0 mm
06:29 22.4 °C 21.1 °C 1013.4 hPa Calm     92% 0 mm
06:34 22.5 °C 21.1 °C 1013.4 hPa Calm   4.8 km/h 92% 0 mm
06:39 22.5 °C 20.9 °C 1013.8 hPa Calm   3.2 km/h 91% 0 mm
06:44 22.6 °C 21 °C 1013.8 hPa Calm     91% 0 mm
06:49 22.5 °C 20.9 °C 1013.8 hPa Calm     91% 0 mm
06:54 22.4 °C 20.9 °C 1013.8 hPa NE 3.2 km/h 12.9 km/h 91% 0 mm
06:59 22.3 °C 20.7 °C 1013.8 hPa NE 3.2 km/h 8 km/h 91% 0 mm
07:04 22.1 °C 20.6 °C 1013.8 hPa NE 3.2 km/h 11.3 km/h 91% 0 mm
07:09 22 °C 20.4 °C 1013.4 hPa NE 4.8 km/h 11.3 km/h 91% 0 mm
07:14 22 °C 20.4 °C 1013.4 hPa NE 4.8 km/h 11.3 km/h 91% 0 mm
07:19 22 °C 20.7 °C 1013.4 hPa NE 4.8 km/h 11.3 km/h 92% 0 mm
07:24 22.1 °C 20.7 °C 1013.4 hPa NE 4.8 km/h 11.3 km/h 92% 0 mm
07:29 22.1 °C 20.7 °C 1013.8 hPa NE 4.8 km/h 6.4 km/h 92% 0 mm
07:34 22.1 °C 20.7 °C 1013.4 hPa NE 1.6 km/h 6.4 km/h 92% 0 mm
07:39 22.2 °C 20.8 °C 1013.4 hPa NE 3.2 km/h 6.4 km/h 92% 0 mm
07:44 22.2 °C 20.8 °C 1013.4 hPa NE 3.2 km/h 12.9 km/h 92% 0 mm
07:49 22.1 °C 20.7 °C 1013.4 hPa ENE 4.8 km/h 14.5 km/h 92% 0 mm
07:54 21.9 °C 20.6 °C 1013.4 hPa NE 1.6 km/h 12.9 km/h 92% 0 mm
07:59 21.8 °C 20.4 °C 1013.4 hPa ENE 11.3 km/h 11.3 km/h 92% 0 mm
08:04 21.5 °C 19.9 °C 1013.4 hPa NE 4.8 km/h 12.9 km/h 91% 0 mm
08:09 21.3 °C 19.9 °C 1013.8 hPa NE 4.8 km/h 12.9 km/h 92% 0 mm
08:14 21 °C 19.5 °C 1013.8 hPa NE 4.8 km/h 14.5 km/h 91% 0 mm
08:19 20.6 °C 19.1 °C 1013.8 hPa NE 4.8 km/h 14.5 km/h 91% 0 mm
08:24 20.3 °C 18.9 °C 1013.8 hPa NE 6.4 km/h 12.9 km/h 92% 0 mm
08:29 20.1 °C 18.8 °C 1013.8 hPa NE 16.1 km/h 20.9 km/h 92% 0 mm
08:34 19.8 °C 18.5 °C 1013.4 hPa NE 8 km/h 20.9 km/h 92% 0 mm
08:39 19.7 °C 18.3 °C 1013.4 hPa NE 9.7 km/h 20.9 km/h 92% 0 mm
08:44 19.5 °C 18.2 °C 1013.8 hPa NE 6.4 km/h 17.7 km/h 92% 0 mm
08:49 19.3 °C 18 °C 1013.4 hPa NE 14.5 km/h 20.9 km/h 92% 0 mm
08:54 19.2 °C 17.8 °C 1013.4 hPa NE 3.2 km/h 14.5 km/h 92% 0 mm
08:59 19.1 °C 17.7 °C 1013.8 hPa ENE 11.3 km/h 11.3 km/h 92% 0 mm
09:04 19.1 °C 17.7 °C 1013.8 hPa NE 4.8 km/h 11.3 km/h 92% 0.51 mm
09:09 19.1 °C 17.9 °C 1013.8 hPa NE 6.4 km/h 17.7 km/h 93% 1.02 mm
09:14 19 °C 17.7 °C 1013.8 hPa NE 9.7 km/h 24.1 km/h 92% 1.02 mm
09:19 18.8 °C 17.5 °C 1014.1 hPa NE 8 km/h 24.1 km/h 92% 3.81 mm
09:24 18.8 °C 17.4 °C 1014.1 hPa NE 6.4 km/h 20.9 km/h 92% 5.59 mm
09:29 18.6 °C 17.3 °C 1014.4 hPa NNW 4.8 km/h 20.9 km/h 92% 6.86 mm
09:34 18.4 °C 17.1 °C 1014.1 hPa NNE 6.4 km/h 20.9 km/h 92% 10.41 mm
09:39 18.3 °C 17.1 °C 1014.1 hPa NNE 6.4 km/h 16.1 km/h 93% 13.21 mm
09:44 18.2 °C 17 °C 1014.4 hPa NNE 4.8 km/h 16.1 km/h 93% 16.76 mm
09:49 18.1 °C 16.9 °C 1014.4 hPa NE 4.8 km/h 22.5 km/h 93% 22.86 mm
09:54 17.9 °C 16.7 °C 1014.4 hPa NNW 9.7 km/h 11.3 km/h 93% 26.67 mm
09:59 17.8 °C 16.7 °C 1014.4 hPa NNE 3.2 km/h 14.5 km/h 93% 28.96 mm
10:04 17.8 °C 16.7 °C 1014.4 hPa NE 4.8 km/h 14.5 km/h 93% 30.99 mm
10:09 17.9 °C 16.7 °C 1014.8 hPa Calm   9.7 km/h 93% 32.51 mm
10:14 17.8 °C 16.7 °C 1014.8 hPa Calm   4.8 km/h 93% 34.04 mm
10:19 17.8 °C 16.7 °C 1015.1 hPa NE 3.2 km/h 4.8 km/h 93% 33.27 mm
10:24 17.8 °C 16.6 °C 1015.1 hPa Calm   3.2 km/h 93% 32.77 mm
10:29 17.7 °C 16.5 °C 1015.1 hPa NE 1.6 km/h 9.7 km/h 93% 33.27 mm
10:34 17.7 °C 16.6 °C 1015.1 hPa NE 3.2 km/h 9.7 km/h 93% 32.26 mm
10:39 17.8 °C 16.6 °C 1015.5 hPa East 3.2 km/h 8 km/h 93% 33.02 mm
10:44 17.8 °C 16.8 °C 1015.1 hPa East 3.2 km/h 4.8 km/h 94% 32.26 mm
10:49 17.8 °C 16.8 °C 1015.1 hPa ENE 1.6 km/h 6.4 km/h 94% 28.19 mm
10:54 17.9 °C 16.9 °C 1015.1 hPa SE 3.2 km/h 6.4 km/h 94% 28.19 mm
10:59 17.9 °C 16.9 °C 1015.5 hPa South 1.6 km/h 11.3 km/h 94% 28.7 mm
11:04 18 °C 17 °C 1015.5 hPa SSW 4.8 km/h 12.9 km/h 94% 26.67 mm
11:09 18.1 °C 17.1 °C 1015.5 hPa South 4.8 km/h 12.9 km/h 94% 26.42 mm
11:14 18.2 °C 17.2 °C 1015.5 hPa SSW 1.6 km/h 8 km/h 94% 26.67 mm
11:19 18.4 °C 17.4 °C 1015.5 hPa ESE 6.4 km/h 8 km/h 94% 27.69 mm
11:24 18.5 °C 17.5 °C 1015.1 hPa SSE 4.8 km/h 8 km/h 94% 29.21 mm
11:29 19.3 °C 18.4 °C 1014.8 hPa SSE 6.4 km/h 9.7 km/h 95% 29.21 mm
11:34 19.8 °C 19 °C 1014.1 hPa SSE 6.4 km/h 14.5 km/h 95% 27.43 mm
11:39 20.1 °C 19.3 °C 1014.1 hPa SE 6.4 km/h 16.1 km/h 95% 24.38 mm
11:44 20.3 °C 19.3 °C 1014.4 hPa SSE 4.8 km/h 16.1 km/h 94% 21.59 mm
11:49 20.4 °C 19.6 °C 1014.4 hPa SSE 3.2 km/h 9.7 km/h 95% 19.81 mm
11:54 20.6 °C 19.6 °C 1014.4 hPa South 3.2 km/h 9.7 km/h 94% 16 mm
11:59 20.9 °C 20.1 °C 1014.4 hPa South 3.2 km/h 9.7 km/h 95% 13.46 mm
12:04 21.2 °C 20.3 °C 1014.4 hPa South 4.8 km/h 11.3 km/h 95% 12.7 mm
12:09 21.4 °C 20.4 °C 1014.4 hPa South 3.2 km/h 11.3 km/h 94% 11.18 mm
12:14 21.6 °C 20.4 °C 1014.4 hPa SW 3.2 km/h 6.4 km/h 93% 9.4 mm
12:19 21.7 °C 20.6 °C 1014.8 hPa South 4.8 km/h 6.4 km/h 93% 6.35 mm
12:24 21.8 °C 20.6 °C 1014.8 hPa SW 6.4 km/h 6.4 km/h 93% 3.56 mm
12:29 21.9 °C 20.6 °C 1014.4 hPa SW 1.6 km/h 6.4 km/h 92% 1.78 mm
12:34 22.1 °C 20.7 °C 1014.8 hPa SW 1.6 km/h 8 km/h 92% 1.02 mm
12:39 22.2 °C 20.6 °C 1014.8 hPa WSW 1.6 km/h 6.4 km/h 91% 0.51 mm
12:44 22.3 °C 20.6 °C 1014.8 hPa SW 3.2 km/h 6.4 km/h 90% 0.51 mm
12:49 22.4 °C 20.7 °C 1014.4 hPa SW 1.6 km/h 6.4 km/h 90% 0.25 mm
12:54 23.1 °C 21.4 °C 1014.8 hPa SSW 3.2 km/h 8 km/h 90% 0.25 mm
12:59 23.2 °C 21.1 °C 1014.8 hPa SSW 4.8 km/h 8 km/h 88% 0 mm
13:04 23 °C 20.6 °C 1014.8 hPa SSW 3.2 km/h 8 km/h 86% 0 mm
13:09 22.8 °C 20.6 °C 1014.8 hPa SSW 3.2 km/h 8 km/h 87% 0 mm
13:14 22.6 °C 20.2 °C 1014.8 hPa SW 3.2 km/h 8 km/h 86% 0 mm
13:19 22.7 °C 20.4 °C 1014.8 hPa SW 1.6 km/h 3.2 km/h 87% 0 mm
13:24 22.7 °C 20.4 °C 1014.8 hPa Calm   4.8 km/h 87% 0 mm
13:29 22.9 °C 20.5 °C 1014.8 hPa SSW 1.6 km/h 6.4 km/h 86% 0 mm
13:34 23.4 °C 21.2 °C 1014.8 hPa SW 1.6 km/h 4.8 km/h 87% 0 mm
13:39 23.6 °C 20.9 °C 1014.8 hPa WSW 1.6 km/h 4.8 km/h 85% 0 mm
13:44 23.4 °C 20.6 °C 1014.8 hPa SW 3.2 km/h 8 km/h 84% 0 mm
13:49 23.3 °C 20.7 °C 1014.8 hPa SW 4.8 km/h 8 km/h 85% 0 mm
13:54 23.5 °C 20.8 °C 1014.4 hPa WSW 3.2 km/h 8 km/h 85% 0 mm
13:59 23.6 °C 20.9 °C 1014.4 hPa WSW 3.2 km/h 8 km/h 85% 0 mm
14:04 23.8 °C 20.9 °C 1014.8 hPa Calm   9.7 km/h 84% 0 mm
14:09 23.8 °C 20.8 °C 1014.8 hPa WSW 8 km/h 11.3 km/h 83% 0 mm
14:14 23.9 °C 20.9 °C 1014.8 hPa SW 4.8 km/h 11.3 km/h 83% 0 mm
14:19 23.9 °C 21 °C 1014.8 hPa WSW 6.4 km/h 9.7 km/h 84% 0 mm
14:24 23.8 °C 20.9 °C 1014.8 hPa Calm   11.3 km/h 84% 0 mm
14:29 24 °C 21.3 °C 1014.8 hPa SW 4.8 km/h 11.3 km/h 85% 0 mm
14:34 24.2 °C 21.2 °C 1014.8 hPa SW 6.4 km/h 11.3 km/h 83% 0 mm
14:39 24.4 °C 21.3 °C 1014.8 hPa SSW 9.7 km/h 17.7 km/h 83% 0 mm
14:44 24.5 °C 21.2 °C 1014.8 hPa SW 8 km/h 17.7 km/h 82% 0 mm
14:49 24.6 °C 21.3 °C 1014.8 hPa SW 6.4 km/h 14.5 km/h 82% 0 mm
14:54 24.8 °C 21.6 °C 1014.8 hPa SW 8 km/h 16.1 km/h 82% 0 mm
14:59 25.4 °C 21.9 °C 1014.8 hPa SW 8 km/h 19.3 km/h 81% 0 mm
15:04 25.9 °C 22 °C 1014.8 hPa WNW 4.8 km/h 19.3 km/h 79% 0 mm
15:09 25.7 °C 21.8 °C 1014.8 hPa SW 11.3 km/h 16.1 km/h 79% 0 mm
15:14 25.7 °C 21.6 °C 1014.8 hPa WSW 9.7 km/h 17.7 km/h 78% 0 mm
15:19 26.1 °C 21.5 °C 1014.8 hPa WSW 9.7 km/h 19.3 km/h 76% 0 mm
15:24 25.6 °C 21.3 °C 1014.8 hPa SW 9.7 km/h 16.1 km/h 77% 0 mm
15:29 25.7 °C 21.6 °C 1014.8 hPa SW 6.4 km/h 14.5 km/h 78% 0 mm
15:34 26.1 °C 21.9 °C 1014.4 hPa WNW 3.2 km/h 12.9 km/h 78% 0 mm
15:39 26.3 °C 21.8 °C 1014.4 hPa Calm   11.3 km/h 76% 0 mm
15:44 26.1 °C 21.6 °C 1014.4 hPa NW 4.8 km/h 11.3 km/h 76% 0 mm
15:49 25.8 °C 21.2 °C 1014.4 hPa WSW 4.8 km/h 11.3 km/h 76% 0 mm
15:54 25.9 °C 21.4 °C 1014.4 hPa SW 6.4 km/h 14.5 km/h 76% 0 mm
15:59 25.9 °C 21.6 °C 1014.1 hPa SW 6.4 km/h 14.5 km/h 77% 0 mm
16:04 26.1 °C 21.7 °C 1014.1 hPa SW 6.4 km/h 12.9 km/h 77% 0 mm
16:09 25.8 °C 21.3 °C 1014.1 hPa SW 14.5 km/h 14.5 km/h 76% 0 mm
16:14 25.7 °C 21.6 °C 1014.1 hPa SW 8 km/h 16.1 km/h 78% 0 mm
16:19 25.6 °C 21.4 °C 1014.1 hPa SW 8 km/h 16.1 km/h 78% 0 mm
16:24 26.1 °C 21.7 °C 1014.1 hPa SW 6.4 km/h 14.5 km/h 77% 0 mm
16:29 26.2 °C 21.4 °C 1014.1 hPa WSW 8 km/h 14.5 km/h 75% 0 mm
16:34 26.1 °C 21.7 °C 1014.1 hPa WSW 6.4 km/h 14.5 km/h 77% 0 mm
16:39 25.8 °C 21.7 °C 1014.1 hPa WSW 6.4 km/h 14.5 km/h 78% 0 mm
16:44 26.2 °C 21.8 °C 1014.1 hPa SSW 3.2 km/h 11.3 km/h 77% 0 mm
16:49 26.1 °C 21.3 °C 1014.1 hPa WSW 3.2 km/h 12.9 km/h 75% 0 mm
16:54 25.9 °C 21.2 °C 1013.8 hPa WSW 6.4 km/h 12.9 km/h 75% 0 mm
16:59 26.4 °C 21.4 °C 1014.1 hPa WSW 6.4 km/h 12.9 km/h 74% 0 mm
17:04 26.3 °C 20.9 °C 1013.8 hPa West 4.8 km/h 12.9 km/h 72% 0 mm
17:09 26.6 °C 21.3 °C 1013.8 hPa SW 3.2 km/h 11.3 km/h 73% 0 mm
17:14 26.4 °C 21.2 °C 1013.8 hPa West 4.8 km/h 14.5 km/h 73% 0 mm
17:19 26.8 °C 21.3 °C 1013.8 hPa West 4.8 km/h 12.9 km/h 72% 0 mm
17:24 26.3 °C 21.1 °C 1013.8 hPa West 4.8 km/h 12.9 km/h 73% 0 mm
17:29 26.2 °C 21 °C 1013.8 hPa WSW 4.8 km/h 11.3 km/h 73% 0 mm
17:34 26.2 °C 20.9 °C 1013.8 hPa SW 4.8 km/h 11.3 km/h 73% 0 mm
17:39 26.2 °C 21 °C 1013.8 hPa WSW 4.8 km/h 11.3 km/h 73% 0 mm
17:44 26.1 °C 21.1 °C 1013.8 hPa WSW 4.8 km/h 9.7 km/h 74% 0 mm
17:49 25.8 °C 21 °C 1013.8 hPa SSW 3.2 km/h 11.3 km/h 75% 0 mm
17:54 25.6 °C 21 °C 1013.8 hPa SSW 4.8 km/h 9.7 km/h 76% 0 mm
17:59 25.4 °C 20.8 °C 1013.8 hPa West 4.8 km/h 9.7 km/h 76% 0 mm
18:04 25.3 °C 20.8 °C 1013.8 hPa West 8 km/h 9.7 km/h 76% 0 mm
18:09 25.2 °C 20.9 °C 1013.8 hPa WSW 3.2 km/h 9.7 km/h 77% 0 mm
18:14 25.2 °C 20.8 °C 1013.8 hPa West 3.2 km/h 6.4 km/h 77% 0 mm
18:19 25.1 °C 20.8 °C 1013.8 hPa SW 6.4 km/h 9.7 km/h 77% 0 mm
18:24 25 °C 20.7 °C 1013.8 hPa SW 3.2 km/h 9.7 km/h 77% 0 mm
18:29 24.9 °C 20.6 °C 1013.8 hPa SW 3.2 km/h 8 km/h 77% 0 mm
18:34 24.9 °C 20.6 °C 1013.8 hPa WSW 3.2 km/h 6.4 km/h 77% 0 mm
18:39 25 °C 20.9 °C 1013.8 hPa Calm   4.8 km/h 78% 0 mm
18:44 25 °C 20.9 °C 1013.8 hPa Calm   6.4 km/h 78% 0 mm
18:49 24.9 °C 20.8 °C 1013.8 hPa SW 3.2 km/h 8 km/h 78% 0 mm
18:54 24.8 °C 20.9 °C 1014.1 hPa SW 3.2 km/h 8 km/h 79% 0 mm
18:59 24.8 °C 20.9 °C 1013.8 hPa SW 3.2 km/h 6.4 km/h 79% 0 mm
19:04 24.7 °C 21 °C 1013.8 hPa SW 1.6 km/h 4.8 km/h 80% 0 mm
19:09 24.4 °C 20.7 °C 1013.8 hPa Calm   6.4 km/h 80% 0 mm
19:14 23.9 °C 20.4 °C 1013.8 hPa NE 4.8 km/h 6.4 km/h 81% 0 mm
19:19 23.6 °C 20.6 °C 1013.8 hPa North 3.2 km/h 6.4 km/h 83% 0 mm
19:24 23.4 °C 20.4 °C 1013.8 hPa NNE 3.2 km/h 6.4 km/h 83% 0 mm
19:29 23.3 °C 20.2 °C 1013.8 hPa NNE 3.2 km/h 11.3 km/h 83% 0 mm
19:34 23.2 °C 20.1 °C 1013.8 hPa NE 3.2 km/h 11.3 km/h 83% 0 mm
19:39 23 °C 19.9 °C 1013.4 hPa ENE 6.4 km/h 12.9 km/h 83% 0 mm
19:44 22.9 °C 20.1 °C 1013.4 hPa ENE 8 km/h 12.9 km/h 84% 0 mm
19:49 22.8 °C 19.9 °C 1013.8 hPa NE 3.2 km/h 9.7 km/h 84% 0 mm
19:54 22.7 °C 19.8 °C 1013.8 hPa NE 6.4 km/h 11.3 km/h 84% 0 mm
19:59 22.7 °C 19.9 °C 1013.4 hPa NE 4.8 km/h 11.3 km/h 84% 0 mm
20:04 22.7 °C 20.1 °C 1013.4 hPa ENE 6.4 km/h 9.7 km/h 85% 0 mm
20:09 22.7 °C 20.1 °C 1013.4 hPa NE 1.6 km/h 11.3 km/h 85% 0 mm
20:14 22.7 °C 20.1 °C 1013.4 hPa ENE 1.6 km/h 12.9 km/h 85% 0 mm
20:19 22.7 °C 20.1 °C 1013.4 hPa ENE 3.2 km/h 11.3 km/h 85% 0 mm
20:24 22.7 °C 20.1 °C 1013.4 hPa ENE 4.8 km/h 11.3 km/h 85% 0 mm
20:29 22.7 °C 20 °C 1013.4 hPa ENE 4.8 km/h 12.9 km/h 85% 0 mm
20:34 22.6 °C 19.9 °C 1013.4 hPa ENE 6.4 km/h 12.9 km/h 85% 0 mm
20:39 22.6 °C 19.9 °C 1013.4 hPa ENE 6.4 km/h 8 km/h 85% 0 mm
20:44 22.7 °C 20 °C 1013.4 hPa East 3.2 km/h 9.7 km/h 85% 0 mm
20:49 22.6 °C 20.2 °C 1013.4 hPa NE 6.4 km/h 8 km/h 86% 0 mm
20:54 22.6 °C 20.1 °C 1013.4 hPa ENE 3.2 km/h 8 km/h 86% 0 mm
20:59 22.4 °C 20 °C 1013.4 hPa ENE 3.2 km/h 8 km/h 86% 0 mm
21:04 22.4 °C 19.9 °C 1013.4 hPa East 3.2 km/h 8 km/h 86% 0 mm
21:09 22.4 °C 19.9 °C 1013.4 hPa East 1.6 km/h 8 km/h 86% 0 mm
21:14 22.3 °C 19.8 °C 1013.4 hPa ENE 1.6 km/h 8 km/h 86% 0 mm
21:19 22.2 °C 19.8 °C 1013.4 hPa ENE 3.2 km/h 6.4 km/h 86% 0 mm
21:24 22.2 °C 19.7 °C 1013.8 hPa East 8 km/h 8 km/h 86% 0 mm
21:29 22 °C 19.7 °C 1013.8 hPa East 3.2 km/h 8 km/h 87% 0 mm
21:34 21.9 °C 19.7 °C 1013.8 hPa East 3.2 km/h 9.7 km/h 87% 0 mm
21:39 21.8 °C 19.6 °C 1013.8 hPa ENE 4.8 km/h 8 km/h 87% 0 mm
21:44 21.7 °C 19.4 °C 1013.4 hPa East 1.6 km/h 9.7 km/h 87% 0 mm
21:49 21.6 °C 19.6 °C 1013.4 hPa ENE 1.6 km/h 6.4 km/h 88% 0 mm
21:54 21.6 °C 19.5 °C 1013.8 hPa ENE 3.2 km/h 6.4 km/h 88% 0 mm
21:59 21.5 °C 19.4 °C 1014.1 hPa ENE 3.2 km/h 6.4 km/h 88% 0 mm
22:04 21.3 °C 19.2 °C 1013.8 hPa ENE 4.8 km/h 12.9 km/h 88% 0 mm
22:09 21.2 °C 19.1 °C 1013.8 hPa ENE 6.4 km/h 12.9 km/h 88% 0 mm
22:14 21.1 °C 19.1 °C 1013.8 hPa ENE 6.4 km/h 12.9 km/h 88% 0 mm
22:19 21.1 °C 19 °C 1013.8 hPa NE 4.8 km/h 8 km/h 88% 0 mm
22:29 20.9 °C 19.1 °C 1013.8 hPa ENE 6.4 km/h 8 km/h 89% 0 mm
22:34 20.8 °C 18.9 °C 1013.8 hPa ENE 3.2 km/h 12.9 km/h 89% 0 mm
22:39 20.8 °C 18.9 °C 1014.1 hPa NE 4.8 km/h 11.3 km/h 89% 0 mm
22:44 20.8 °C 18.9 °C 1014.1 hPa NE 1.6 km/h 6.4 km/h 89% 0 mm
22:49 20.8 °C 18.9 °C 1013.8 hPa ENE 4.8 km/h 8 km/h 89% 0 mm
22:54 20.8 °C 18.9 °C 1014.1 hPa ENE 1.6 km/h 8 km/h 89% 0 mm
22:59 20.8 °C 18.9 °C 1014.1 hPa ENE 3.2 km/h 8 km/h 89% 0 mm
23:04 20.8 °C 18.9 °C 1013.8 hPa ENE 1.6 km/h 6.4 km/h 89% 0 mm
23:09 20.7 °C 18.8 °C 1013.8 hPa ENE 3.2 km/h 8 km/h 89% 0 mm
23:14 20.6 °C 18.7 °C 1013.8 hPa ENE 3.2 km/h 8 km/h 89% 0 mm
23:19 20.6 °C 18.7 °C 1013.8 hPa NE 3.2 km/h 4.8 km/h 89% 0 mm
23:24 20.6 °C 18.8 °C 1013.8 hPa NE 3.2 km/h 6.4 km/h 90% 0 mm
23:29 20.6 °C 18.9 °C 1013.4 hPa NE 3.2 km/h 8 km/h 90% 0 mm
23:34 20.6 °C 18.8 °C 1013.8 hPa ENE 3.2 km/h 8 km/h 90% 0 mm
23:39 20.6 °C 18.8 °C 1013.8 hPa ENE 1.6 km/h 8 km/h 90% 0 mm
23:44 20.6 °C 18.8 °C 1013.4 hPa ENE 3.2 km/h 6.4 km/h 90% 0 mm
23:49 20.5 °C 18.8 °C 1013.4 hPa Calm   6.4 km/h 90% 0 mm
23:54 20.4 °C 18.7 °C 1013.4 hPa ENE 1.6 km/h 6.4 km/h 90% 0 mm
23:59 20.5 °C 18.8 °C 1013.4 hPa Calm   3.2 km/h 90% 0 mm
Buffalo, New York, USA
Compliments of Weather Underground - 2.5 mb